Regional Weather Roundup
Issued by NWS

Home | Current Version | Previous Version | Graphics & Text | Print | Product List | Glossary On
Versions: 1 2 3 4 5 6 7 8 9 10 11 12 13 14 15 16 17 18 19 20 21 22 23 24 25 26 27 28 29 30 31 32 33 34 35 36 37 38 39 40 41 42 43 44 45 46 47 48 49 50
000
ASUS43 KMKX 021200
RWRWI

WISCONSIN REGIONAL WEATHER ROUNDUP
NATIONAL WEATHER SERVICE MILWAUKEE/SULLIVAN WI
700 AM CDT WED SEP 02 2015

NOTE: "FAIR" INDICATES FEW OR NO CLOUDS BELOW 12,000 FEET WITH NO
SIGNIFICANT WEATHER AND/OR OBSTRUCTIONS TO VISIBILITY.

WIZ001-002-006>008-014>016-023>028-021300-
NORTHWEST WISCONSIN

CITY           SKY/WX    TMP DP  RH WIND       PRES   REMARKS
SUPERIOR ARPT  HVY RAIN  64  63  99 E7        29.96R
ASHLAND        LGT RAIN  68  68 100 SW5       29.96F
6HR MIN TEMP:  64; 6HR MAX TEMP:  69; 6HR PCP:  0.12;

HAYWARD        LGT RAIN  66  63  90 VRB3      29.99R
6HR MIN TEMP:  65; 6HR MAX TEMP:  74; 6HR PCP:  1.22;

SIREN          LGT RAIN  67  65  94 SE5       29.99R
CUMBERLAND     TSTM      66  64  94 NE12      29.99R
RICE LAKE      TSTM      66  64  93 N13G18    30.00R
CHETEK         RAIN     N/A N/A N/A N10G17    29.98R
LADYSMITH      CLOUDY    69  65  88 NW7       30.01R
6HR MIN TEMP:  69; 6HR MAX TEMP:  73;

EAU CLAIRE     NOT AVBL
MENOMONIE      LGT RAIN  72  71  95 CALM      29.93F
NEW RICHMOND   RAIN      70  69  98 CALM      29.97R
OSCEOLA        LGT RAIN  70  70 100 NE6       29.97S
$$

WIZ003>005-009-010-017-018-021300-
NORTH CENTRAL WISCONSIN

CITY           SKY/WX    TMP DP  RH WIND       PRES   REMARKS
MANITOWISH WTR CLOUDY    68  68 100 E3        29.98S
ARBOR VITAE    CLOUDY    69  67  94 CALM      29.98F FOG
WOODRUFF       CLOUDY    69  67  94 CALM      29.98F FOG
RHINELANDER    FOG       67  66  97 E3        30.00F VSB 1/4
6HR MIN TEMP:  64; 6HR MAX TEMP:  69;

EAGLE RIVER    CLOUDY    63  63 100 CALM      30.00R FOG
LAND O LAKES     N/A     62  62 100 CALM      30.01S FOG
PHILLIPS       CLOUDY    71  71 100 SW6       29.97S
6HR MIN TEMP:  67; 6HR MAX TEMP:  71;

TOMAHAWK       FOG       68  67  96 CALM      29.99S VSB 3/4
MEDFORD        CLOUDY    71  71  99 S7        29.99S FOG
MERRILL        FOG       65  65 100 CALM      30.00S VSB 1/4
6HR MIN TEMP:  63; 6HR MAX TEMP:  68;

$$

WIZ029-030-035-036-043>047-021300-
CENTRAL WISCONSIN

CITY           SKY/WX    TMP DP  RH WIND       PRES   REMARKS
WAUSAU         MOCLDY    72  71  97 S3        29.98S FOG
6HR MIN TEMP:  70; 6HR MAX TEMP:  73;

MOSINEE        FOG       70  70 100 S3        30.01S VSB 1
MARSHFIELD     FOG       70  66  87 CALM      30.00R VSB 1/4
6HR MIN TEMP:  68; 6HR MAX TEMP:  72;

STEVENS POINT  MOCLDY    69  69 100 CALM      30.01S FOG
WAUPACA        FOG       72  71  96 CALM      30.00R VSB 1/2
WAUTOMA        FOG       68  68 100 CALM      30.01S VSB<1/4
WISC RAPIDS    MOCLDY    71  69  93 SW3       30.01S FOG
6HR MIN TEMP:  69; 6HR MAX TEMP:  72; 6HR PCP: TRACE;

CAMP DOUGLAS   NOT AVBL
$$

WIZ011>013-019>022-031-037>040-048>050-021300-
NORTHEAST WISCONSIN

CITY           SKY/WX    TMP DP  RH WIND       PRES   REMARKS
ANTIGO         FOG       64  64 100 CALM      30.02R VSB<1/4
SHAWANO        FOG       71  69  95 CALM      29.98S VSB 1
OCONTO         CLOUDY    65  65 100 CALM      29.97R VSB<1/4
STURGEON BAY   FAIR      73  70  88 W6        30.00R
6HR MIN TEMP:  72; 6HR MAX TEMP:  73;

GREEN BAY      PTCLDY    69  67  93 CALM      29.99R FOG
6HR MIN TEMP:  68; 6HR MAX TEMP:  73;

MANITOWOC      NOT AVBL
APPLETON       MOCLDY    72  72 100 SW9       29.99R FOG
CLINTONVILLE   FOG       66  64  94 CALM      29.99R VSB<1/4
OSHKOSH        PTCLDY    72  69  90 SW6       30.00R FOG
6HR MIN TEMP:  71; 6HR MAX TEMP:  74;

$$

WIZ032>034-041-042-053>061-021300-
SOUTHWEST WISCONSIN

CITY           SKY/WX    TMP DP  RH WIND       PRES   REMARKS
LA CROSSE      CLOUDY    74  68  81 CALM      29.96S
6HR MIN TEMP:  74; 6HR MAX TEMP:  77;

SPARTA         MOCLDY    64  63  94 CALM      29.99S
VIROQUA          N/A     71  70  96 S7        30.01S
BOSCOBEL       FOG       65  64  97 CALM      30.01R VSB<1/4
6HR MIN TEMP:  64; 6HR MAX TEMP:  72;

PRAIRIE DU CHI MOCLDY    71  66  83 CALM      29.99S
PLATTEVILLE    MOCLDY    69  68  96 S7        30.03R
$$

WIZ056-057-062-063-064-067-068-021300-
SOUTH CENTRAL WISCONSIN

CITY           SKY/WX    TMP DP  RH WIND       PRES   REMARKS
REEDSBURG      PTCLDY    67  67  99 CALM      30.01R FOG
BARABOO/DELLS  PTCLDY    70  67  92 CALM      30.02S
LONE ROCK      CLEAR     65  64  97 CALM      30.02R FOG
MINERAL POINT  CLEAR     70  68  94 S3        30.04R FOG
MADISON        MOCLDY    70  67  90 CALM      30.02R
6HR MIN TEMP:  69; 6HR MAX TEMP:  77;

MIDDLETON      PTCLDY    69  68  95 CALM      30.02S
WATERTOWN      PTCLDY    66  66 100 CALM      30.03R FOG
MONROE         CLEAR     70  68  94 SW8       30.04R
JANESVILLE     CLEAR     70  68  94 CALM      30.04R FOG
$$

WIZ051-052-058>065-066-070>072-021300-
SOUTHEAST WISCONSIN

CITY           SKY/WX    TMP DP  RH WIND       PRES   REMARKS
MILWAUKEE      PTCLDY    74  68  81 W3        30.03R
6HR MIN TEMP:  73; 6HR MAX TEMP:  77;

WAUKESHA       CLEAR     68  66  94 CALM      30.05R
MILWAUKEE/TIMM CLEAR     72  66  83 W5        30.03R
RACINE         PTCLDY    72  67  84 SW3       30.05R
6HR MIN TEMP:  70; 6HR MAX TEMP:  76;

BURLINGTON     MOCLDY    63  63  98 CALM      30.04R FOG
KENOSHA        MOCLDY    71  68  90 W6        30.04R
6HR MIN TEMP:  71; 6HR MAX TEMP:  76;

FOND DU LAC    CLEAR     71  70  96 SW7       30.01R FOG
6HR MIN TEMP:  71; 6HR MAX TEMP:  74;

SHEBOYGAN      CLEAR     72  70  93 SW6       30.00R FOG
6HR MIN TEMP:  69; 6HR MAX TEMP:  73;

WEST BEND      CLEAR     68  66  94 CALM      30.03R
JUNEAU           N/A     68  67  98 CALM      30.04R FOG
$$

LSZ147-162-021300-
LAKE SUPERIOR

STATION/POSITION TIME  TEMP    WIND        PRES    WAVE
                       AIR SEA DIR/SP/G            HT/PER
                 (UTC) (F)     (DEG/KT/KT) (MB)    (FT/S)
W MID LAKE BUOY  1050   57 56   20/  6/  8 1014.3R   0
DEVILS ISLAND    1100   61      40/  5/  5 1014.3R
PORT WING        1100   63     220/  5/  8 1014.2
SAXON HARBOR     1140   69     220/  2/  9 1014.2R
$$

LMZ867-665-643>646-021300-
LAKE MICHIGAN

STATION/POSITION TIME  TEMP    WIND        PRES    WAVE
                       AIR SEA DIR/SP/G            HT/PER
                 (UTC) (F)     (DEG/KT/KT) (MB)    (FT/S)
CHAMBERS ISLAND  1100   68     200/  2/  3 1014.6R
S GREEN BAY BUOY 1000   69 67  220/  6/  8 1015.4
N MID LAKE BUOY  1050   66 65  200/  4/  4 1013.7R   1/ 4
NORTHPORT PIER   1100   64        CALM     1014.6R
SISTER BAY       1119   70     300/  5/  6   N/A
ALGOMA LAKESHORE 1129             CALM       N/A
KEWAUNEE LAKESHO 1100          180/  4/  4 1013.6R
SHEBOYGAN LAKESH 1100   74     250/  9/ 11 1015.2R
PORT WASHINGTON  1100   74     270/  7/ 10 1015.9R
ATWATER BUOY     1100   63 50  140/  2/  6 1017.2R
MILWAUKEE LAKESH 1110   76     270/  6/  8   N/A
S MID LAKE BUOY  1150   72 70  210/ 10/ 12 1016.2R   1/ 3
KENOSHA   LAKESH 1100   75     240/  5/  9 1016.3R
$$

TC  - TEMPERATURE IN CELSIUS
VSB - VISIBILITY IN STATUTE MILES
WCI - WIND CHILL INDEX
HX  - HEAT INDEX



USA.gov is the U.S. government's official web portal to all federal, state and local government web resources and services.